Flag for Switzerland Weather past 2 weeks in Pratteln, Basel-Land, Switzerland

Now
36 °F

Partly sunny.


Feels Like: 32 °F
Forecast: 26 / 35 °F
Wind: 5 mph from South

Location: Bale-Mulhouse

Current Time: Jan 30, 2015 at 11:57:36 AM

Latest Report: Jan 30, 2015 at 11:30 AM


Visibility: N/A

Pressure: 29.06 "Hg

Humidity: 81%

Dew point: 30 °F

Location of PrattelnLocation

Historic Weather in Pratteln — Graph

°F

Pratteln temperature yesterday

Maximum temperature yesterday: 45 °F (at 12:00 AM)
Minimum temperature yesterday: 34 °F (at 3:30 AM)
Average temperature yesterday: 39 °F

Past Weeks' High & Low Weather Summary

 TemperatureHumidityPressure
High48 °F (Jan 15, 2:00 PM)100% (Jan 16, 10:30 AM)30.45 "Hg (Jan 16, 10:30 AM)
Low27 °F (Jan 18, 4:30 AM)66% (Jan 15, 2:00 PM)28.82 "Hg (Jan 30, 12:30 AM)
Average36 °F89%29.95 "Hg
* Reported Jan 15 10:00 AM — Jan 30 10:30 AM, Pratteln, Weather by CustomWeather, © 2014

Note: Actual official high and low records may vary slightly from our data, if they occured in-between our weather recording intervals... More about our weather records

Advertising

Pratteln weather history for previous 24 hours

 ConditionsComfort  
Time TempWeatherWind HumidityBarometerVisibility
10:30 AM
Jan 30
36 °FBroken clouds.9 mph75%29.06 "HgN/A
10:00 AM34 °FPartly sunny.6 mph81%29.06 "HgN/A
9:30 AM34 °FBroken clouds.6 mph81%29.06 "HgN/A
9:00 AM34 °FSnow flurries. Broken clouds.8 mph81%29.06 "HgN/A
8:30 AM34 °FPartly sunny.9 mph75%29.06 "HgN/A
8:00 AM34 °FPartly sunny.13 mph75%29.06 "HgN/A
7:30 AM34 °FPassing clouds.14 mph81%29.06 "HgN/A
7:00 AM34 °FPassing clouds.20 mph75%29.06 "HgN/A
6:30 AM34 °FPassing clouds.14 mph75%29.06 "HgN/A
6:00 AM34 °FPassing clouds.22 mph81%29.00 "HgN/A
5:30 AM34 °FSnow flurries. Passing clouds.28 mph87%28.97 "Hg4 mi
5:00 AM34 °FPassing clouds.26 mph87%28.94 "HgN/A
4:30 AM34 °FPassing clouds.17 mph87%28.97 "HgN/A
4:00 AM36 °FLight snow. Partly cloudy.20 mph87%28.94 "HgN/A
3:30 AM34 °FHeavy rain. Passing clouds.28 mph93%28.91 "Hg4 mi
3:00 AM39 °FPartly cloudy.16 mph81%28.88 "HgN/A
2:30 AM39 °FPassing clouds.13 mph81%28.88 "HgN/A
2:00 AM39 °FPassing clouds.16 mph81%28.88 "HgN/A
1:30 AM39 °FLight rain. Mostly cloudy.15 mph87%28.85 "HgN/A
1:00 AM41 °FLight rain. Overcast.15 mph87%28.85 "HgN/A
12:30 AM41 °FLight rain. Mostly cloudy.7 mph87%28.82 "HgN/A
12:00 AM41 °FRain. Passing clouds.2 mph87%28.85 "HgN/A
11:30 PM
Jan 29
41 °FLight rain. Passing clouds.3 mph87%28.85 "HgN/A
11:00 PM43 °FLight rain. Passing clouds.8 mph81%28.85 "HgN/A
10:30 PM41 °FLight rain. Passing clouds.2 mph81%28.88 "HgN/A
10:00 PM41 °FLight rain. Partly cloudy.3 mph87%28.91 "HgN/A
9:30 PM41 °FLight rain. Passing clouds.7 mph87%28.94 "HgN/A
9:00 PM41 °FLight rain. Passing clouds.6 mph87%28.94 "HgN/A
8:30 PM41 °FLight rain. Partly cloudy.6 mph87%28.97 "HgN/A
8:00 PM41 °FLight rain. Partly cloudy.6 mph87%29.00 "HgN/A
7:30 PM41 °FLight rain. Passing clouds.7 mph87%29.03 "HgN/A
7:00 PM39 °FLight rain. Mostly cloudy.7 mph93%29.06 "HgN/A
6:30 PM39 °FLight rain. Mostly cloudy.7 mph93%29.09 "Hg5 mi
6:00 PM39 °FLight rain. Mostly cloudy.8 mph93%29.12 "HgN/A
5:30 PM39 °FLight rain. Overcast.6 mph93%29.15 "Hg5 mi
5:00 PM39 °FLight rain. Mostly cloudy.5 mph93%29.18 "HgN/A
4:30 PM41 °FLight rain. Cloudy.3 mph87%29.21 "HgN/A
4:00 PM41 °FLight rain. Cloudy.3 mph87%29.24 "HgN/A
3:30 PM41 °FCloudy.3 mph87%29.24 "HgN/A
3:00 PM41 °FLight rain. Cloudy.5 mph87%29.27 "HgN/A
2:30 PM41 °FLight rain. Partly sunny.2 mph81%29.30 "HgN/A
2:00 PM41 °FLight rain. Partly sunny.7 mph81%29.36 "HgN/A
1:00 PM41 °FLight rain. Partly sunny.14 mph81%29.42 "HgN/A
12:30 PM41 °FBroken clouds.5 mph81%29.42 "HgN/A
12:00 PM41 °FPartly sunny.2 mph81%29.47 "HgN/A
11:30 AM39 °FPartly sunny.5 mph81%29.47 "HgN/A
11:00 AM39 °FPartly sunny.5 mph81%29.50 "HgN/A
Weather by CustomWeather, © 2014

See weather overviewHow to use our weather pages